[[{"header":{"parameterUnit":"m.s-1","parameterCategory":1,"la1":30.2991,"la2":30.254,"lo1":-89.0895,"lo2":-89.0444,"dy":0.0017,"dx":0.0017,"nx":28,"ny":28,"refTime":"2023-10-31T21:00:00:Z","depth":0,"parameterNumber":2,"parameterNumberName":"U-component_of_WINDS"},"data":[0,0,0,0,0,0,0,0,0,0,0,0,0,0,0,0,0,0,0,0,0,0,0,0,0,0,0,0,0,0,0,0,0,0,0,0,0,0,0,0,0,0,0,0,0,0,0,0,0,0,0,0,0,0,0,0,0,0,-5.7957,-5.7959,0,-5.8069,-5.807,-5.8071,-5.7993,-5.799,-5.7986,-5.7983,-5.8097,-5.8103,-5.8109,0,0,0,0,0,0,0,0,0,0,0,0,0,-5.7678,-5.7684,-5.7957,-5.7959,-5.796,-5.8068,-5.807,-5.8071,-5.7994,-5.799,-5.7986,-5.7982,-5.8095,-5.8102,-5.811,0,0,0,0,0,0,0,0,0,0,0,0,0,-5.7795,-5.7685,-5.7957,-5.7935,-5.7934,-5.8068,-5.807,-5.8072,-5.7995,-5.799,-5.7984,-5.798,-5.8093,-5.8102,-5.8111,-5.8274,0,0,-5.814,-5.8144,0,0,0,0,0,0,0,0,-5.7789,-5.7806,-5.7936,-5.7936,-5.7936,-5.8012,-5.8013,-5.814,-5.7996,-5.7972,-5.7983,-5.7977,-5.8073,-5.8084,-5.8116,-5.8279,-5.8284,-5.8141,-5.8146,-5.815,-5.8153,0,0,0,0,0,0,0,-5.7781,-5.78,-5.8001,-5.7938,-5.7938,-5.7919,-5.793,-5.8037,-5.805,-5.7973,-5.7968,-5.7982,-5.8072,-5.8107,-5.8118,-5.8286,-5.814,-5.8149,-5.8155,-5.8158,-5.8589,-5.8595,0,0,0,0,0,0,-5.7775,-5.7794,-5.7998,-5.8005,-5.7848,-5.7928,-5.794,-5.7993,-5.8049,-5.8052,-5.7987,-5.7978,-5.8094,-5.8107,-5.8122,-5.8317,-5.815,-5.8159,-5.8165,-5.8583,-5.859,-5.8597,0,0,0,0,0,0,-5.7769,-5.7794,-5.7993,-5.7898,-5.7922,-5.7939,-5.7998,-5.7998,-5.8033,-5.8059,-5.8061,-5.802,-5.809,-5.8109,-5.8237,-5.832,-5.8163,-5.8172,-5.8577,-5.8586,-5.8594,-5.8708,0,0,0,0,0,0,-5.7761,-5.7792,-5.7854,-5.79,-5.7927,-5.8107,-5.8003,-5.8004,-5.8049,-5.8039,-5.8091,-5.8095,-5.8087,-5.8223,-5.8246,-5.833,-5.8179,-5.8569,-5.8581,-5.8591,-5.8697,-5.872,-5.8739,0,0,0,0,0,-5.7752,-5.7881,-5.7857,-5.7882,-5.8005,-5.8112,-5.8127,-5.8116,-5.8056,-5.8119,-5.8136,-5.8093,-5.8307,-5.8237,-5.8262,-5.835,-5.8564,-5.8577,-5.859,-5.8687,-5.8715,-5.8738,0,0,0,0,0,0,-5.7844,-5.7887,-5.7861,-5.8009,-5.8058,-5.8098,-5.8177,-5.8146,-5.8212,-5.82,-5.8183,-5.8195,-5.833,-5.8353,-5.8274,-5.8511,-5.8426,-5.8445,-5.8491,-5.8518,-5.8538,-5.853,-5.8187,0,0,0,0,0,-5.7882,-5.7965,-5.7998,-5.8126,-5.8151,-5.816,-5.8206,-5.8194,-5.8243,-5.8262,-5.8288,-5.8338,-5.8416,-5.8468,-5.8542,-5.87,-5.871,-5.8773,-5.8794,-5.8811,-5.8827,-5.8913,-5.8942,-5.864,-5.8639,-5.8639,0,0,-5.7961,-5.7994,-5.8048,-5.8145,-5.8181,-5.8267,-5.8178,-5.8273,-5.8337,-5.8277,-5.84,-5.8421,-5.8475,-5.8619,-5.8684,-5.8642,-5.8913,-5.8827,-5.8841,-5.8848,-5.893,-5.8958,-5.8984,-5.8648,-5.8647,-5.8645,0,0,-5.8148,-5.8182,-5.8293,-5.8331,-5.8386,-5.8392,-5.8418,-5.8464,-5.8476,-5.8599,-5.8556,-5.8632,-5.8767,-5.8808,-5.8846,-5.9051,-5.9014,-5.9075,-5.9185,-5.9269,-5.9293,-5.9314,-5.9388,-5.9415,-5.9092,-5.9092,-5.9092,0,-5.8239,-5.8368,-5.8354,-5.8453,-5.8497,-5.8447,-5.8559,-5.8597,-5.8674,-5.8706,-5.8658,-5.8827,-5.886,-5.9013,-5.9063,-5.9096,-5.9126,-5.9069,-5.9291,-5.9312,-5.9331,-5.9401,-5.9429,-5.9099,-5.9098,-5.9097,-5.9097,0,-5.8477,-5.8567,-5.865,-5.8726,-5.878,-5.8885,-5.8887,-5.8943,-5.8926,-5.8937,-5.9063,-5.9101,-5.9182,-5.9217,-5.9201,-5.9369,-5.9341,-5.9293,-5.9207,-5.9368,-5.9433,-5.946,-5.9109,-5.9107,-5.9105,-5.9103,0,0,-5.8726,-5.8794,-5.8824,-5.8859,-5.8917,-5.8986,-5.9089,-5.9168,-5.9217,-5.9272,-5.9358,-5.9474,-5.943,-5.9474,-5.9462,-5.9536,-5.9697,-5.9478,-5.9479,-5.9518,-5.9885,-5.9921,-5.9953,-5.9673,-5.9678,-5.9682,-5.988,0,-5.8918,-5.9098,-5.9088,-5.9257,-5.934,-5.9295,-5.9384,-5.943,-5.9443,-5.9516,-5.9529,-5.9612,-5.9547,-5.9573,-5.9644,-5.9662,-5.977,-5.9648,-5.9754,-5.9757,-5.9742,-5.9987,-6.0026,-6.0211,-5.9906,-5.991,-5.9913,0,-5.9165,-5.9229,-5.9406,-5.9453,-5.9487,-5.9568,-5.9641,-5.971,-5.9761,-5.9766,-5.9815,-5.9792,-5.9896,-5.9808,-5.9953,-5.987,-5.9912,-5.9928,-5.9935,-5.9944,-5.9845,-6.0004,-6.027,-6.0298,-5.9954,-5.995,-5.9947,0,-5.933,-5.946,-5.9583,-5.9614,-5.9671,-5.9729,-5.9756,-5.9801,-5.985,-5.9913,-5.9944,-6.0019,-6.006,-6.0119,-6.0117,-6.0052,-6.0264,-6.0175,-6.027,-6.0271,-6.0317,-6.0314,-6.0594,-6.0344,-6.0344,-6.0343,-6.0343,0,-5.9545,-5.9655,-5.9658,-5.9734,-5.9856,-5.9845,-5.9966,-5.9987,-6.0028,-6.0107,-6.0072,-6.0147,-6.0139,-6.0215,-6.0214,-6.0335,-6.0353,-6.036,-6.0358,-6.0363,-6.0363,-6.0391,-6.0378,-6.0351,-6.0349,-6.0348,-6.0346,0,-5.9749,-5.9756,-5.9887,-5.9931,-5.9944,-6.0033,-6.007,-6.0142,-6.0152,-6.0253,-6.0276,-6.0292,-6.0379,-6.0383,-6.0483,-6.0483,-6.063,-6.0613,-6.0613,-6.061,-6.0705,-6.0696,-6.1014,-6.1055,-6.0778,-6.0781,-6.0783,0,-5.9886,-5.997,-6.0023,-6.0074,-6.0104,-6.0186,-6.0236,-6.0228,-6.0281,-6.0346,-6.041,-6.0495,-6.0562,-6.0704,-6.0725,-6.0802,-6.0787,-6.0893,-6.0799,-6.0801,-6.079,-6.0785,-6.0793,-6.0912,-6.0915,-6.0917,-6.092,0,-6.0129,-6.0128,-6.0201,-6.0276,-6.0336,-6.0394,-6.0448,-6.0492,-6.049,-6.0552,-6.0641,-6.0693,-6.0796,-6.0881,-6.0956,-6.0983,-6.0952,-6.0949,-6.0976,-6.0982,-6.0978,-6.0982,-6.0663,-6.0942,-6.094,-6.0938,-6.0937,-6.0936,-6.0304,-6.0377,-6.0426,-6.0509,-6.0549,-6.06,-6.067,-6.0689,-6.0764,-6.0847,-6.0838,-6.0937,-6.0987,-6.1085,-6.1119,-6.1196,-6.116,-6.1198,-6.1208,-6.1217,-6.1228,-6.0965,-6.121,-6.1209,-6.1209,-6.1208,-6.1208,0,-6.0546,-6.0575,-6.0651,-6.0728,-6.0793,-6.0758,-6.0816,-6.0873,-6.0961,-6.101,-6.1077,-6.118,-6.1262,-6.129,-6.1369,-6.1427,-6.1414,-6.1448,-6.1444,-6.1451,-6.1255,-6.1225,-6.1457,-6.1457,-6.1456,-6.1456,-6.1456,-6.1456,-6.0679,-6.08,-6.0806,-6.0947,-6.0975,-6.1073,-6.1109,-6.1157,-6.1196,-6.1313,-6.1381,-6.1398,-6.1439,-6.1521,-6.1595,-6.1601,-6.1632,-6.1672,-6.1672,-6.1489,-6.1464,-6.144,-6.1412,-6.1679,-6.1679,-6.1861,-6.1862,-6.1864]},{"header":{"parameterUnit":"m.s-1","parameterCategory":1,"la1":30.2991,"la2":30.254,"lo1":-89.0895,"lo2":-89.0444,"dy":0.0017,"dx":0.0017,"nx":28,"ny":28,"refTime":"2023-10-31T21:00:00:Z","depth":0,"parameterNumber":3,"parameterNumberName":"V-component_of_WINDS"},"data":[0,0,0,0,0,0,0,0,0,0,0,0,0,0,0,0,0,0,0,0,0,0,0,0,0,0,0,0,0,0,0,0,0,0,0,0,0,0,0,0,0,0,0,0,0,0,0,0,0,0,0,0,0,0,0,0,0,0,-1.594,-1.5939,0,-1.5876,-1.5875,-1.5874,-1.5836,-1.5836,-1.5836,-1.5836,-1.5771,-1.5769,-1.5768,0,0,0,0,0,0,0,0,0,0,0,0,0,-1.6028,-1.6026,-1.594,-1.5939,-1.5938,-1.5876,-1.5875,-1.5874,-1.5837,-1.5836,-1.5836,-1.5836,-1.5771,-1.5769,-1.5768,0,0,0,0,0,0,0,0,0,0,0,0,0,-1.5979,-1.6026,-1.594,-1.5912,-1.5909,-1.5876,-1.5875,-1.5874,-1.5837,-1.5836,-1.5836,-1.5836,-1.5772,-1.577,-1.5767,-1.5758,0,0,-1.576,-1.5759,0,0,0,0,0,0,0,0,-1.5982,-1.5976,-1.5917,-1.5914,-1.591,-1.5864,-1.5882,-1.5835,-1.5837,-1.5864,-1.5836,-1.5836,-1.5802,-1.5797,-1.5786,-1.5755,-1.5752,-1.576,-1.5758,-1.5757,-1.5757,0,0,0,0,0,0,0,-1.5985,-1.5979,-1.5914,-1.5916,-1.5912,-1.5902,-1.5895,-1.5873,-1.5835,-1.5862,-1.5859,-1.5852,-1.58,-1.5788,-1.5784,-1.5751,-1.576,-1.5758,-1.5756,-1.5755,-1.5706,-1.5707,0,0,0,0,0,0,-1.5993,-1.5982,-1.5917,-1.5913,-1.5946,-1.5901,-1.5893,-1.5879,-1.5835,-1.5828,-1.5852,-1.585,-1.5792,-1.5787,-1.5782,-1.5766,-1.5757,-1.5755,-1.5754,-1.5706,-1.5707,-1.5707,0,0,0,0,0,0,-1.5995,-1.5988,-1.5919,-1.5946,-1.5937,-1.5899,-1.5884,-1.5878,-1.5866,-1.5828,-1.5821,-1.5847,-1.5792,-1.5785,-1.5763,-1.5763,-1.5754,-1.5752,-1.5706,-1.5706,-1.5707,-1.5736,0,0,0,0,0,0,-1.5998,-1.5989,-1.5985,-1.5946,-1.5935,-1.5903,-1.5884,-1.5877,-1.5862,-1.5859,-1.5821,-1.5815,-1.5791,-1.5767,-1.5761,-1.576,-1.575,-1.5706,-1.5706,-1.5707,-1.5735,-1.5737,-1.5739,0,0,0,0,0,-1.6001,-1.5997,-1.5985,-1.5978,-1.593,-1.5903,-1.5896,-1.5869,-1.5862,-1.5858,-1.5833,-1.5816,-1.5764,-1.5765,-1.5758,-1.5756,-1.5706,-1.5706,-1.5707,-1.5734,-1.5736,-1.5739,0,0,0,0,0,0,-1.6037,-1.5991,-1.5978,-1.5961,-1.5936,-1.5896,-1.589,-1.5873,-1.585,-1.5848,-1.5816,-1.5807,-1.5789,-1.577,-1.5772,-1.5743,-1.5733,-1.5732,-1.5756,-1.5758,-1.576,-1.5765,-1.5748,0,0,0,0,0,-1.6043,-1.6024,-1.5985,-1.5974,-1.5962,-1.5928,-1.5915,-1.5896,-1.5869,-1.5859,-1.5832,-1.5807,-1.5784,-1.577,-1.5748,-1.5732,-1.5722,-1.5727,-1.5729,-1.5731,-1.573,-1.5718,-1.5719,-1.5708,-1.5708,-1.5708,0,0,-1.6055,-1.6027,-1.6018,-1.598,-1.5958,-1.5939,-1.592,-1.5901,-1.5886,-1.5856,-1.5833,-1.5813,-1.5782,-1.5763,-1.5753,-1.5747,-1.5731,-1.5731,-1.5733,-1.5731,-1.5718,-1.5719,-1.572,-1.5708,-1.5708,-1.5708,0,0,-1.6066,-1.6044,-1.6031,-1.601,-1.5977,-1.5954,-1.5951,-1.5914,-1.5899,-1.5876,-1.5852,-1.5834,-1.5797,-1.5775,-1.5759,-1.5761,-1.5744,-1.5754,-1.5765,-1.5754,-1.5755,-1.5755,-1.5755,-1.5755,-1.5754,-1.5754,-1.5754,0,-1.6085,-1.6056,-1.6027,-1.6009,-1.5992,-1.5963,-1.5949,-1.5929,-1.5891,-1.588,-1.5874,-1.5825,-1.5802,-1.5776,-1.5776,-1.5765,-1.576,-1.5758,-1.5757,-1.5757,-1.5758,-1.5756,-1.5756,-1.5755,-1.5755,-1.5755,-1.5755,0,-1.608,-1.606,-1.6053,-1.6016,-1.5999,-1.5983,-1.5951,-1.5936,-1.5919,-1.5897,-1.5873,-1.5844,-1.5814,-1.5807,-1.579,-1.5778,-1.5775,-1.5763,-1.5752,-1.5761,-1.5759,-1.5758,-1.5757,-1.5757,-1.5756,-1.5756,0,0,-1.6113,-1.6058,-1.6056,-1.6038,-1.6,-1.5983,-1.5965,-1.5936,-1.5924,-1.5898,-1.5882,-1.585,-1.5838,-1.582,-1.58,-1.579,-1.5791,-1.5779,-1.5778,-1.5782,-1.5775,-1.5783,-1.5783,-1.578,-1.578,-1.5779,-1.5777,0,-1.6117,-1.6084,-1.6056,-1.6033,-1.6013,-1.5984,-1.5969,-1.5943,-1.5921,-1.5901,-1.5877,-1.5854,-1.5841,-1.583,-1.5819,-1.5794,-1.5789,-1.5793,-1.5763,-1.5762,-1.5771,-1.5783,-1.5792,-1.5791,-1.5776,-1.5776,-1.5776,0,-1.6119,-1.6093,-1.6068,-1.6029,-1.602,-1.6006,-1.5976,-1.5957,-1.5927,-1.5911,-1.5891,-1.5869,-1.5848,-1.5839,-1.5809,-1.5812,-1.5798,-1.5784,-1.5783,-1.5779,-1.5769,-1.5778,-1.579,-1.579,-1.5775,-1.5775,-1.5775,0,-1.6144,-1.6103,-1.6082,-1.6068,-1.6022,-1.6013,-1.5994,-1.5963,-1.5947,-1.592,-1.5909,-1.5881,-1.5865,-1.5843,-1.5814,-1.5811,-1.5786,-1.5776,-1.5773,-1.5773,-1.5768,-1.5769,-1.5778,-1.5761,-1.5761,-1.5761,-1.5761,0,-1.6151,-1.6136,-1.6092,-1.6079,-1.6061,-1.6029,-1.6012,-1.599,-1.5963,-1.5944,-1.5918,-1.5901,-1.5865,-1.5843,-1.5821,-1.5798,-1.5792,-1.5778,-1.5772,-1.578,-1.5782,-1.577,-1.5769,-1.5761,-1.5761,-1.5761,-1.5761,0,-1.6176,-1.6146,-1.612,-1.6079,-1.6069,-1.6057,-1.6021,-1.6007,-1.5984,-1.5961,-1.5954,-1.5917,-1.589,-1.5859,-1.5823,-1.5807,-1.5786,-1.5778,-1.5796,-1.5793,-1.5791,-1.5791,-1.5792,-1.579,-1.5776,-1.5776,-1.5776,0,-1.6182,-1.617,-1.6127,-1.6113,-1.6094,-1.6072,-1.6054,-1.6022,-1.6005,-1.5968,-1.5958,-1.5929,-1.5904,-1.5863,-1.5833,-1.5804,-1.5794,-1.5797,-1.579,-1.5798,-1.5793,-1.5794,-1.5792,-1.5799,-1.5799,-1.5799,-1.5799,0,-1.6196,-1.6182,-1.6158,-1.6128,-1.6108,-1.6083,-1.6057,-1.6047,-1.6009,-1.5992,-1.5964,-1.5944,-1.5906,-1.5877,-1.5845,-1.5824,-1.5805,-1.5802,-1.5799,-1.5807,-1.5817,-1.581,-1.5801,-1.5802,-1.5801,-1.5801,-1.5801,-1.5801,-1.6211,-1.6198,-1.6166,-1.6139,-1.6116,-1.6092,-1.6076,-1.6051,-1.6027,-1.5993,-1.5975,-1.5948,-1.5916,-1.587,-1.585,-1.5827,-1.5821,-1.5818,-1.5816,-1.5816,-1.5818,-1.5822,-1.5821,-1.5821,-1.5821,-1.5821,-1.5821,0,-1.6223,-1.62,-1.6176,-1.614,-1.6119,-1.6103,-1.6073,-1.6057,-1.6032,-1.6004,-1.598,-1.5947,-1.5919,-1.5886,-1.5855,-1.5843,-1.5834,-1.5836,-1.5836,-1.5832,-1.5826,-1.583,-1.5844,-1.5844,-1.5844,-1.5844,-1.5844,-1.5844,-1.6226,-1.6203,-1.6184,-1.6149,-1.6126,-1.6098,-1.6082,-1.606,-1.6037,-1.6002,-1.5978,-1.5956,-1.5926,-1.5893,-1.5866,-1.5856,-1.5846,-1.5851,-1.5839,-1.5834,-1.5832,-1.583,-1.5835,-1.5849,-1.5849,-1.5847,-1.5847,-1.5847]}]]